QB50P1

Last updated on Sun Jun 21 2026 00:03:20 GMT+0000 (Coordinated Universal Time)

1 40025U 14033R 26171.31353525 .00007093 00000+0 34929-3 0 9994 2 40025 98.0964 182.6784 0008083 203.9686 156.1171 15.18299167653508
UTC large
Height (km)
Speed (km/s)
/
Latitude / Longitude
Inclination (degrees)
Orbital Period (minutes)
Azimuth
Elevation
Range (km)
Doppler Factor

Next 0 passes for location: London (51.5072 / 0.1276)

No passes found over London.
QB50P1